Impacts TAF Board
For situational awareness. Not to be used for flight planning purposes.
IDs:

KDFW - Dallas-Ft Worth Intl, TX, US

Issued at 2101 UTC 18 Nov 2018
Updated at 2247 UTC 18 Nov 2018
Potential Impact None Slight Moderate High
Time2153Z 18/23Z 19/00Z 19/01Z 19/02Z 19/03Z 19/04Z 19/05Z 19/06Z 19/07Z 19/08Z 19/09Z 19/10Z 19/11Z>>
Type OBS PRVL PRVL PRVL PRVL PRVL PRVL PRVL PRVL PRVL PRVL PRVL PRVL PRVL
VIS 10 >6 >6 >6 >6 >6 >6 >6 >6 >6 >6 >6 >6 >6
CIG 22 22 250 250 250 250 250 250 250 250 250 250 250 250
Cover OVC OVC BKN BKN BKN BKN BKN BKN BKN BKN BKN BKN BKN BKN
FltCat MVFR MVFR VFR VFR VFR VFR VFR VFR VFR VFR VFR VFR VFR VFR
WX -- -- -- -- -- -- -- -- -- -- -- -- -- --
WDir 330 340 340 340 340 340 340 340 340 340 340 340 340 340
WSpd 10 12 7 7 7 7 7 7 7 7 7 7 7 7
WGst -- -- -- -- -- -- -- -- -- -- -- -- -- --
Raw TAF
KDFW 182101Z 1821/1924 34012KT P6SM OVC022
  FM190000 34007KT P6SM BKN250


Raw METAR
KDFW 182153Z 33010KT 10SM OVC022 06/M01 A3023 RMK AO2 SLP237 T00561006 $
KDFW 182053Z 35012KT 10SM OVC021 06/M01 A3024 RMK AO2 SLP240 T00561006 56019 $
KDFW 181953Z 34012KT 10SM OVC020 06/00 A3026 RMK AO2 SLP245 T00560000 $

METAR Board
Radar Display
Forecast Discussion
For situational awareness. Not to be used for flight planning purposes.